Regional Weather Roundup
Issued by NWS

Home | Current Version | Previous Version | Text Only | Print | Product List | Glossary Off
Versions: 1 2 3 4 5 6 7 8 9 10 11 12 13 14 15 16 17 18 19 20 21 22 23 24 25 26 27 28 29 30 31 32 33 34 35 36 37 38 39 40 41 42 43 44 45 46 47 48 49 50

000
ASUS45 KTFX 230110
RWRMT
MONTANA REGIONAL WEATHER ROUNDUP
NATIONAL WEATHER SERVICE GREAT FALLS MT
600 PM MST SUN JAN 22 2017

NOTE: "FAIR" INDICATES FEW OR NO CLOUDS BELOW 12000 FEET WITH NO
SIGNIFICANT WEATHER AND/OR OBSTRUCTIONS TO VISIBILITY.

MTZ001>007-043-230200-
WEST OF THE DIVIDE

CITY           SKY/WX    TMP DP  RH WIND       PRES   REMARKS
KALISPELL      MOCLDY    24  21  88 CALM      29.61F
MISSOULA       CLOUDY    31  29  92 SE3       29.64F
BUTTE          CLOUDY    28  20  71 S6        29.63F WCI  22
MULLAN PASS    LGT SNOW  24  22  91 SE3       29.51S FOG
ANACONDA         N/A     28  21  74 SE5       29.63F
DEER LODGE       N/A     28  28 100 SW6       29.66S WCI  22
EUREKA           N/A     27  21  80 CALM      29.67S
HAMILTON         N/A     28  27  93 NE3       29.63F
PLAINS           N/A     25  19  77 CALM      29.66
$$

MTZ008-052>055-230200-
SOUTHWEST MONTANA

CITY           SKY/WX    TMP DP  RH WIND       PRES   REMARKS
BOZEMAN        CLOUDY    26  19  74 VRB6      29.67F WCI  19
DILLON         CLOUDY   N/A N/A N/A NW3       29.63F
W YELLOWSTONE  CLOUDY    25  21  86 S9        29.70S FOG     WCI  15
ENNIS          CLOUDY    30  21  69 S20G29    29.68F WCI  18
$$

MTZ009-010-012-014-046-048-049-054-230200-
EAST SLOPES AND CENTRAL MONTANA

CITY           SKY/WX    TMP DP  RH WIND       PRES   REMARKS
CUT BANK       FOG       23  22  96 SE8       29.74R VSB 1   WCI  14
GREAT FALLS    FOG       24  22  91 NE15      29.70F VSB 1/4 WCI  11
MALMSTROM AFB  CLOUDY    25  25 100 NE12      29.72S FOG     WCI  14
HELENA         CLOUDY    23  15  71 CALM      29.68S
AUGUSTA        FRZ RAIN  22  22 100 NE12      29.68R VSB 1/4 WCI  11
BOWMANS CRNR   FOG       23  22  97 NE17      29.64F VSB 5/8 WCI   9
CHOTEAU        FOG       23  23 100 NE9       29.73F VSB 1/4 WCI  13
POWER          FOG       23  22  97 N12       29.70F VSB 3/8 WCI  12
RAYNESFORD       N/A     29  24  81 E8        29.69S WCI  21
ULM            MOCLDY    27  26  95 MISG      29.68S
$$

MTZ011-013-016-021-045-047-050-051-230200-
NORTH CENTRAL MONTANA

CITY           SKY/WX    TMP DP  RH WIND       PRES   REMARKS
HAVRE          CLOUDY    28  26  92 N3        29.79F
LEWISTOWN      CLEAR     28  22  78 E6        29.70S WCI  22
CHINOOK          N/A     30  25  80 CALM      29.81S
DENTON         FRZ RAIN  24  24  98 NE10      29.69F VSB 1/8 WCI  14
FORT BENTON      N/A     27  25  93 MISG      29.78R
GEYSER           N/A     25  23  93 SE7       29.70F WCI  17
GRASS RANGE    CLOUDY    25  25  99 E3        29.71F FOG
JUDITH GAP     MOCLDY    27  19  73 SE8       29.69S WCI  19
ROY            FOG       24  24  99 MISG      29.73F VSB 3/8
STANFORD         N/A     23  23  97 N6        29.69F WCI  16
WINIFRED       FRZ RAIN  24  24  99 E13       29.71F VSB 3/8 WCI  13
$$

MTZ017>020-022>027-061-062-230200-
NORTHEAST MONTANA

CITY           SKY/WX    TMP DP  RH WIND       PRES   REMARKS
GLASGOW        CLOUDY    30  25  81 SW6       29.81S WCI  24
JORDAN           N/A     29  25  85 CALM      29.81S
SIDNEY         CLOUDY    30  23  75 NW7       29.85R WCI  23
WOLF POINT     CLOUDY    31  25  78 SW7       29.84S WCI  24
PLENTYWOOD       N/A    N/A N/A N/A W6        29.80S
POPLAR           N/A     28  25  86 W6        29.84S WCI  22
$$

MTZ028>42-056>058-230200-
SOUTHCENTRAL AND SOUTHEAST MONTANA

CITY           SKY/WX    TMP DP  RH WIND       PRES   REMARKS
BAKER          CLOUDY    24  21  88 W8        29.84S WCI  15
BILLINGS       MOCLDY    33  22  63 CALM      29.75R
LIVINGSTON     CLOUDY    35  19  52 VRB3      29.66F
MILES CITY     CLOUDY    24  20  84 SE6       29.84S WCI  17
BIG TIMBER     CLOUDY    32  18  55 E10       29.71F WCI  24
FORSYTH          N/A     21  21 100 E8        29.82F WCI  12
HARLOWTON      MOCLDY    29  21  72 E7        29.69F WCI  22
$$

REGIONAL REPORTS...DAKOTAS

CITY           SKY/WX    TMP DP  RH WIND       PRES   REMARKS
WILLISTON      CLOUDY    30  24  78 W9        29.83R WCI  22
MINOT          CLOUDY    31  28  89 W13       29.78S WCI  21
DICKINSON      CLOUDY    26  23  88 NW17      29.80R WCI  13
BEACH          CLOUDY    27  25  93 NW15      29.85F WCI  15
CROSBY         CLOUDY    27  27 100 W12       29.81S WCI  16
TIOGA          CLOUDY    27  27 100 W13       29.80S WCI  16
WATFORD CITY   CLOUDY    28  23  80 W8        29.83R WCI  20
BISMARCK       CLOUDY    33  27  78 NW8       29.84S WCI  26
GRAND FORKS    CLOUDY    33  29  85 SW5       29.76S
FARGO          CLOUDY    34  31  88 W6        29.78S FOG     WCI  29
BUFFALO SD       N/A     21  18  88 NW6       29.76S WCI  13
RAPID CITY     CLEAR     27  22  81 CALM      29.84R
$$

REGIONAL REPORTS...WYOMING/IDAHO/WASHINGTON

CITY           SKY/WX    TMP DP  RH WIND       PRES   REMARKS
GILLETTE       CLEAR     26  21  81 S5        29.78F
SHERIDAN       CLEAR     22  17  81 SW7       29.76S WCI  13
BUFFALO WY     CLEAR     25  16  68 NW9       29.74F WCI  15
CODY           CLOUDY    26  16  65 CALM      29.72F
YELLOWSTONE LA   N/A     20  15  81 CALM      29.71F
IDAHO FALLS    LGT SNOW  30  29  96 S6        29.73S FOG     WCI  24
SALMON         CLOUDY    19  16  86 E3        29.67S
BOISE          CLOUDY    38  31  76 SE12      29.63F WCI  30
SPOKANE        LGT SNOW  33  32  96 SE6       29.57S VSB 1   WCI  28
$$

REGIONAL REPORTS...ALBERTA

CITY           SKY/WX    TMP DP  RH WIND       PRES   REMARKS
EDMONTON       CLOUDY    16   9  73 NE3       29.90S
CALGARY        LGT SNOW  21  19  93 E6        29.78S FOG     WCI  14
LETHBRIDGE     CLOUDY    25  23  93 NE10      29.78F FOG     WCI  15
MEDICINE HAT   LGT SNOW  23  21  93 N9        29.83F FOG     WCI  13
WATERTON GATE    N/A     23  21  93 E6          N/A  WCI  16
CARDSTON         N/A     23  23 100 NE5         N/A
MILK RIVER       N/A     25  25 100 NE9         N/A  WCI  15
ONEFOUR          N/A     27  27 100 NW6         N/A  WCI  20
$$

REGIONAL REPORTS...SASKATCHEWAN

CITY           SKY/WX    TMP DP  RH WIND       PRES   REMARKS
SWIFT CURRENT  CLOUDY    19  19 100 NW9       29.77S WCI   9
REGINA         FLURRIES  23  21  93 NW13      29.78S WCI  11
SASKATOON      FLURRIES  18  14  86 NW8       29.83S WCI   7
VAL MARIE        N/A     28  25  86 E2          N/A
ROCKGLEN         N/A     25  23  93 NW7         N/A  WCI  17
ASSINIBOIA       N/A     18  18 100 N2          N/A
$$



USA.gov is the U.S. government's official web portal to all federal, state and local government web resources and services.